Burnsville, North Carolina, United States (28714)
Lat: 35.92N, Lon: 82.3W
Wx Zone: NCZ049
Local Info
Past Weather Observations for Wednesday, March 25, 2015

NOTE: This archive is for the closest National Weather Service station to Burnsville. Information may differ from the station used for current weather conditions.

Click here for Long-term Archive

Time Weather Temperature Dewpoint Humidity Pressure Winds Precip Visibility
23:54
Overcast
Light Rain
55°F / 13°C 54°F / 12°C 94% 30.12 in
(1020 mb)
SSE 6.9 mph
(SSE 11 kph)
0.00 in
(0.00 mm)
7SM
23:44
Overcast
55°F / 13°C 54°F / 12°C 94% 30.12 in
(1020 mb)
S 6.9 mph
(S 11 kph)
- 7SM
23:18
Overcast
Fog And Mist
55°F / 13°C 54°F / 12°C 94% 30.12 in
(1020 mb)
S 9.2 mph
(S 15 kph)
- 6SM
22:54
Overcast
Fog And Mist
55°F / 13°C 54°F / 12°C 94% 30.12 in
(1020 mb)
SSE 5.8 mph
(SSE 9 kph)
- 6SM
22:49
Overcast
Fog And Mist
55°F / 13°C 54°F / 12°C 94% 30.12 in
(1020 mb)
S 6.9 mph
(S 11 kph)
- 5SM
21:54
Overcast
55°F / 13°C 54°F / 12°C 94% 30.15 in
(1021 mb)
S 5.8 mph
(S 9 kph)
- 9SM
21:50
Overcast
55°F / 13°C 54°F / 12°C 94% 30.15 in
(1021 mb)
S 5.8 mph
(S 9 kph)
- 10SM
20:54
Overcast
55°F / 13°C 54°F / 12°C 94% 30.15 in
(1021 mb)
S 6.9 mph
(S 11 kph)
0.00 in
(0.00 mm)
10SM
19:54
Overcast
Light Rain
55°F / 13°C 54°F / 12°C 94% 30.15 in
(1021 mb)
SSE 6.9 mph
(SSE 11 kph)
0.00 in
(0.00 mm)
7SM
19:14
Overcast
57°F / 14°C 54°F / 12°C 88% 30.18 in
(1022 mb)
SE 5.8 mph
(SE 9 kph)
- 10SM
19:02
Overcast
57°F / 14°C 54°F / 12°C 88% 30.18 in
(1022 mb)
SE 6.9 mph
(SE 11 kph)
- 10SM
18:54
Overcast
57°F / 14°C 54°F / 12°C 88% 30.18 in
(1022 mb)
SSE 8.1 mph
(SSE 13 kph)
- 9SM
18:43
Overcast
57°F / 14°C 54°F / 12°C 88% 30.18 in
(1022 mb)
SE 6.9 mph
(SE 11 kph)
- 10SM
18:18
Overcast
59°F / 15°C 54°F / 12°C 82% 30.15 in
(1021 mb)
SE 6.9 mph
(SE 11 kph)
- 10SM
17:54
Overcast
61°F / 16°C 54°F / 12°C 77% 30.15 in
(1021 mb)
SE 6.9 mph
(SE 11 kph)
- 10SM
17:37
Overcast
61°F / 16°C 54°F / 12°C 77% 30.15 in
(1021 mb)
ESE 6.9 mph
(ESE 11 kph)
- 10SM
16:54
Overcast
61°F / 16°C 54°F / 12°C 77% 30.15 in
(1021 mb)
SE 5.8 mph
(SE 9 kph)
- 10SM
15:54
Overcast
61°F / 16°C 54°F / 12°C 77% 30.18 in
(1022 mb)
SSE 5.8 mph
(SSE 9 kph)
- 10SM
15:52
Overcast
61°F / 16°C 54°F / 12°C 77% 30.18 in
(1022 mb)
SSE 8.1 mph
(SSE 13 kph)
- 10SM
14:54
Overcast
Hazy
59°F / 15°C 54°F / 12°C 82% 30.18 in
(1022 mb)
SE 4.6 mph
(SE 7 kph)
0.00 in
(0.00 mm)
4SM
13:54
Overcast
Fog And Mist
55°F / 13°C 54°F / 12°C 94% 30.21 in
(1023 mb)
Variable 4.6 mph
(Variable 7 kph)
0.01 in
(0.25 mm)
4SM
13:36
Overcast
Fog And Mist
55°F / 13°C 54°F / 12°C 94% 30.21 in
(1023 mb)
SE 5.8 mph
(SE 9 kph)
0.01 in
(0.25 mm)
4SM
13:29
Overcast
Light Rain
55°F / 13°C 54°F / 12°C 94% 30.21 in
(1023 mb)
SE 4.6 mph
(SE 7 kph)
0.01 in
(0.25 mm)
1 3/4SM
12:54
Overcast
Light Rain
55°F / 13°C 54°F / 12°C 94% 30.24 in
(1024 mb)
SE 6.9 mph
(SE 11 kph)
0.05 in
(1.27 mm)
1 3/4SM
12:20
Overcast
Light Rain
54°F / 12°C 52°F / 11°C 94% 30.24 in
(1024 mb)
ESE 6.9 mph
(ESE 11 kph)
0.01 in
(0.25 mm)
1 3/4SM
11:54
Overcast
Light Rain
54°F / 12°C 52°F / 11°C 94% 30.24 in
(1024 mb)
SE 6.9 mph
(SE 11 kph)
0.01 in
(0.25 mm)
6SM
11:33
Overcast
Fog And Mist
54°F / 12°C 52°F / 11°C 94% 30.24 in
(1024 mb)
ESE 6.9 mph
(ESE 11 kph)
- 6SM
11:04
Overcast
Fog And Mist
54°F / 12°C 52°F / 11°C 94% 30.24 in
(1024 mb)
SSE 6.9 mph
(SSE 11 kph)
- 2SM
10:54
Overcast
Fog And Mist
54°F / 12°C 52°F / 11°C 94% 30.24 in
(1024 mb)
S 8.1 mph
(S 13 kph)
0.00 in
(0.00 mm)
2SM
10:43
Overcast
Fog And Mist
54°F / 12°C 52°F / 11°C 94% 30.24 in
(1024 mb)
SSE 9.2 mph
(SSE 15 kph)
0.00 in
(0.00 mm)
4SM
10:24
Overcast
Fog And Mist
54°F / 12°C 52°F / 11°C 94% 30.24 in
(1024 mb)
SE 6.9 mph
(SE 11 kph)
0.00 in
(0.00 mm)
2SM
10:15
Overcast
Fog And Mist
54°F / 12°C 52°F / 11°C 94% 30.24 in
(1024 mb)
SE 5.8 mph
(SE 9 kph)
0.00 in
(0.00 mm)
2 1/2SM
10:03
Overcast
Fog And Mist
54°F / 12°C 52°F / 11°C 94% 30.24 in
(1024 mb)
SE 6.9 mph
(SE 11 kph)
0.00 in
(0.00 mm)
3SM
09:54
Overcast
Light Rain
54°F / 12°C 52°F / 11°C 94% 30.24 in
(1024 mb)
SSE 5.8 mph
(SSE 9 kph)
0.01 in
(0.25 mm)
2SM
09:50
Overcast
Light Rain
54°F / 12°C 52°F / 11°C 94% 30.24 in
(1024 mb)
SSE 5.8 mph
(SSE 9 kph)
0.01 in
(0.25 mm)
2SM
09:02
Overcast
Fog And Mist
54°F / 12°C 52°F / 11°C 94% 30.24 in
(1024 mb)
SSE 5.8 mph
(SSE 9 kph)
0.01 in
(0.25 mm)
2SM
08:54
Overcast
Light Rain
54°F / 12°C 52°F / 11°C 94% 30.24 in
(1024 mb)
S 5.8 mph
(S 9 kph)
0.00 in
(0.00 mm)
4SM
08:04
Overcast
Fog And Mist
55°F / 13°C 52°F / 11°C 88% 30.24 in
(1024 mb)
SE 6.9 mph
(SE 11 kph)
- 3SM
07:54
Overcast
Hazy
55°F / 13°C 50°F / 10°C 82% 30.24 in
(1024 mb)
SE 4.6 mph
(SE 7 kph)
- 3SM
07:42
Overcast
55°F / 13°C 50°F / 10°C 82% 30.24 in
(1024 mb)
SE 5.8 mph
(SE 9 kph)
- 10SM
06:54
Overcast
55°F / 13°C 48°F / 9°C 77% 30.21 in
(1023 mb)
SSE 6.9 mph
(SSE 11 kph)
- 10SM
06:11
Overcast
55°F / 13°C 48°F / 9°C 77% 30.21 in
(1023 mb)
SE 5.8 mph
(SE 9 kph)
- 10SM
05:54
Overcast
55°F / 13°C 48°F / 9°C 77% 30.21 in
(1023 mb)
SE 5.8 mph
(SE 9 kph)
- 10SM
05:41
Overcast
55°F / 13°C 48°F / 9°C 77% 30.21 in
(1023 mb)
SE 4.6 mph
(SE 7 kph)
- 10SM
04:54
Mostly Cloudy
54°F / 12°C 50°F / 10°C 88% 30.18 in
(1022 mb)
SSE 5.8 mph
(SSE 9 kph)
- 10SM
04:25
Mostly Cloudy
55°F / 13°C 50°F / 10°C 82% 30.18 in
(1022 mb)
SE 5.8 mph
(SE 9 kph)
- 10SM
03:54
Clear
54°F / 12°C 48°F / 9°C 82% 30.18 in
(1022 mb)
S 4.6 mph
(S 7 kph)
- 10SM
02:54
Mostly Cloudy
54°F / 12°C 46°F / 8°C 77% 30.18 in
(1022 mb)
S 3.5 mph
(S 6 kph)
- 10SM
01:54
Overcast
54°F / 12°C 46°F / 8°C 77% 30.21 in
(1023 mb)
S 5.8 mph
(S 9 kph)
- 10SM
00:54
Overcast
54°F / 12°C 45°F / 7°C 72% 30.21 in
(1023 mb)
SSE 4.6 mph
(SSE 7 kph)
- 10SM
Time Weather Temperature Dewpoint Humidity Pressure Winds Precip Visibility


Weather for websites

WeatherForYou.com, LLC is not responsible for any damages or problems caused by this service. Current weather conditions are obtained from the closest station including government and personal stations which may have varying degrees of accuracy. Weather forecasts are derived from the NOAA NDFD. Like all things, this site belongs to Jesus Christ... He just trusts me to maintain it. If you have any questions or comments email webmaster@weatherforyou.com

Copyright © 2015, WeatherForYou.com LLC. All rights reserved.